Regional Weather Roundup
Issued by NWS Sterling, VA

Home | Current Version | Previous Version | Text Only | Print | Product List | Glossary On
Versions: 1 2 3 4 5 6 7 8 9 10 11 12 13 14 15 16 17 18 19 20 21 22 23 24 25 26 27 28 29 30 31 32 33 34 35 36 37 38 39 40 41 42 43 44 45 46 47 48 49 50
000
ASUS41 KLWX 301210
RWRLWX

REGIONAL WEATHER ROUNDUP
NATIONAL WEATHER SERVICE BALTIMORE MD/WASHINGTON DC
800 AM EDT SUN AUG 30 2015

Note: "FAIR" indicates few or no clouds below 12,000 feet
with no significant weather and/or obstructions to visibility.
 TC=TEMPERATURE CELSIUS

 * =Non NWS site. Station does not report precipitation (e.g. rain,
    snow, etc.), thunder, or fog.

DCZ001-MDZ009-015-VAZ040>042-051-053>054-301300-
WASHINGTON METRO

CITY           SKY/WX    TMP DP  RH WIND       PRES   REMARKS
WASHINGTON NAT PTSUNNY   71  64  78 S8        30.13R
DULLES         PTSUNNY   68  64  87 S3        30.13R
ANDREWS AFB    MOSUNNY   71  63  76 SW8       30.12R
FT BELVOIR     MOSUNNY   66  65  95 CALM      30.13R
QUANTICO       MOSUNNY   70  63  78 SW6       30.14R
COLLEGE PARK*  SUNNY     68  66  94 CALM      30.12S
LEESBURG*      FAIR      68  68 100 CALM      30.14R
GAITHERSBURG*  SUNNY     70  63  78 W3        30.17S

$$

MDZ006>007-011-014-301300-
BALTIMORE METRO

CITY           SKY/WX    TMP DP  RH WIND       PRES   REMARKS
BWI AIRPORT    PTSUNNY   68  64  87 CALM      30.12R
MD SCIENCE CTR   N/A     71  63  75 MISG      30.13R
MARTIN STATE   MOSUNNY   72  68  88 SE3       30.13S
ANNAPOLIS      SUNNY     69  62  78 S3        30.13R
FORT MEADE*    SUNNY     61  61 100 CALM      30.15R

$$

MDZ012-015-019>023-301300-
MARYLAND EASTERN SHORE

CITY           SKY/WX    TMP DP  RH WIND       PRES   REMARKS
OCEAN CITY     PTSUNNY   71  64  78 CALM      30.14R
SALISBURY      PTSUNNY   66  63  90 CALM      30.14R
BAY BRIDGE AP*   N/A     72  61  68 SW6       30.13R
CAMBRIDGE*     MOSUNNY   68  63  83 CALM      30.13R
EASTON*        MOSUNNY   66  66 100 CALM      30.16

$$

MDZ017>025-301300-
SOUTHERN MARYLAND

CITY           SKY/WX    TMP DP  RH WIND       PRES   REMARKS
PATUXENT RIVER CLOUDY    70  65  84 CALM      30.14R
ST INIGOES     PTSUNNY   72  65  78 SW3       30.13R
LEONARDTOWN*   PTSUNNY   68  63  83 CALM      30.15R

$$

MDZ003>005-301300-
NORTH CENTRAL MARYLAND

CITY           SKY/WX    TMP DP  RH WIND       PRES   REMARKS
FREDERICK*     SUNNY     66  66 100 S3        30.15R
HAGERSTOWN APT SUNNY     68  62  81 SE6       30.14R
WESTMINSTER*   SUNNY     68  64  88 CALM      30.13S

$$

MDZ501>502-301300-
WESTERN MARYLAND

CITY           SKY/WX    TMP DP  RH WIND       PRES   REMARKS
OAKLAND*       SUNNY     63  59  88 SW6       30.23S
CUMBERLAND*    SUNNY     63  61  94 CALM      30.19R

$$

VAZ025>031-301300-
SHENANDOAH VALLEY

CITY           SKY/WX    TMP DP  RH WIND       PRES   REMARKS
WINCHESTER*    MOSUNNY   72  61  68 SW5       30.14R
FRONT ROYAL*   FAIR      68  61  77 S6        30.13S
LURAY*         FAIR      63  63 100 CALM      30.16R
NEW MARKET*    FAIR      63  61  94 CALM      30.16R
STAUNTON*      CLOUDY    67  62  85 CALM      30.20R
WAYNESBORO*    FAIR      67  62  85 MISG      30.19R

$$

WVZ021-048>050-054>055-301300-
EASTERN WEST VIRGINIA PANHANDLE

CITY           SKY/WX    TMP DP  RH WIND       PRES   REMARKS
MARTINSBURG    SUNNY     65  62  90 CALM      30.14R FOG
PETERSBURG*    MOSUNNY   60  59  96 CALM      30.18R FOG

$$

VAZ036>039-050-301300-
CENTRAL FOOTHILLS

CITY           SKY/WX    TMP DP  RH WIND       PRES   REMARKS
CHARLOTTESVILL CLOUDY    68  64  87 CALM      30.14S
CULPEPER*      MOSUNNY   64  63  99 CALM      30.14S FOG
ORANGE*        PTSUNNY   68  64  88 CALM      30.15R
GORDONSVILLE*  FAIR      67  64  91 SW3       30.13S
WARRENTON*     FAIR      67  66  94 CALM      30.13R

$$

VAZ055>057-301300-
NORTH AND CENTRAL PIEDMONT

CITY           SKY/WX    TMP DP  RH WIND       PRES   REMARKS
FREDERICKSBRG* MOSUNNY   71  65  81 CALM      30.13R
STAFFORD*      MOSUNNY   67  63  86 S3        30.17R

$$

NCZ024-NYZ072-PAZ021-071-VAZ022-071-301300-
OTHER REGIONAL OBSERVATIONS

CITY           SKY/WX    TMP DP  RH WIND       PRES   REMARKS
NEW YORK CITY  SUNNY     73  62  68 VRB5      30.13S
PHILADELPHIA   MOSUNNY   73  64  73 SW7       30.13R
PITTSBURGH     CLOUDY    67  65  93 E3        30.13S
ROANOKE        CLOUDY    68  62  81 CALM      30.20R
RICHMOND       CLOUDY    69  63  81 CALM      30.15R
RALEIGH        PTSUNNY   69  64  84 CALM      30.17R

$$

ANZ530>537-301300-
MARINE OBSERVATIONS

STATION/POSITION TIME  TEMP    WIND        PRES
                       AIR SEA DIR/SP/G
                 (UTC) (F)     (DEG/KT/KT) (MB)
THOMAS PT LIGHT  NOT AVBL

$$




USA.gov is the U.S. government's official web portal to all federal, state and local government web resources and services.